User: anonymous
Location: Unspecified
(0.0000°N, 0.0000°E)
Time: 16:36:44
(UTC+02:00)
Language:

SWIFT - Orbit

View from above orbital plane
View from above orbital plane
View from above satellite
View from above satellite

Ground track
Ground track

The orbit data is extracted from the following two-line orbital elements,

1 28485U 04047A   14232.08499179  .00001993  00000-0  12516-3 0  7506
2 28485 020.5575 133.7783 0012401 190.9582 169.0581 14.99125604532794
Epoch (UTC): 20 August 2014 02:02:23
Eccentricity: 0.0012401
inclination: 20.5575°
perigee height: 561 km
apogee height: 578 km
right ascension of ascending node: 133.7783°
argument of perigee: 190.9582°
revolutions per day: 14.99125604
mean anomaly at epoch: 169.0581°
orbit number at epoch: 53279

The dashed part of the orbit path shows where the satellite is in the earth's shadow,  

DLR